Weather History for Mount Ida, AR

Change the Weather History Date:

Friday, October 21, 2011

  Actual Average (KHOT) Record (KHOT)
Temperature  
Mean Temperature 52 °F -  
Max Temperature 73 °F 73 °F 91 °F (2003)
Min Temperature 32 °F 48 °F 30 °F (1989)
Degree Days  
Heating Degree Days 13    
Growing Degree Days 2 (Base 50)    
Moisture  
Dew Point 37 °F    
Average Humidity 70    
Maximum Humidity 97    
Minimum Humidity 26    
Precipitation  
Precipitation 0.00 in - - ()
Sea Level Pressure  
Sea Level Pressure 30.17 in    
Wind  
Wind Speed 1 mph (SE)    
Max Wind Speed 5 mph    
Max Gust Speed -    
Visibility 10 miles    
Events      
Averages and records for this station are not official NWS values.
T = Trace of Precipitation, MM = Missing Value Source: NWS Daily Summary

Daily Weather History Graph

Daily Weather History Graph

Search for Another Location

Airport:

Trip Planner

Search our weather history database for the weather conditions in past years. The results will help you decide how hot, cold, wet, or windy it might be!

Date:

Astronomy

Oct. 21, 2011 Rise Set
Actual Time 7:24 AM CDT 6:32 PM CDT
Civil Twilight 6:59 AM CDT 6:58 PM CDT
Nautical Twilight 6:29 AM CDT 7:27 PM CDT
Astronomical Twilight 6:00 AM CDT 7:56 PM CDT
Moon 1:30 AM CDT (10/21) 3:04 PM CDT (10/21)
Length of Visible Light 11h 59m
Length of Day
11h 08m
Waning Crescent, 33% of the Moon is Illuminated
Oct 21
Waning Crescent
Oct 26
New
Nov 2
First Quarter
Nov 10
Full
Nov 18
Last Quarter

Hourly Weather History & Observations

Time (CDT) Temp. Dew Point Humidity Pressure Visibility Wind Dir Wind Speed Gust Speed Precip Events Conditions
12:53 AM 36.0 °F 35.1 °F 97% 30.13 in 10.0 mi Calm Calm - N/A   Clear
1:53 AM 36.0 °F 35.1 °F 97% 30.14 in 10.0 mi Calm Calm - N/A   Clear
2:53 AM 35.1 °F 34.0 °F 96% 30.14 in 10.0 mi Calm Calm - N/A   Clear
3:53 AM 34.0 °F 33.1 °F 96% 30.14 in 10.0 mi Calm Calm - N/A   Clear
4:53 AM 33.1 °F 32.0 °F 96% 30.16 in 10.0 mi Calm Calm - N/A   Clear
5:53 AM 32.0 °F 30.9 °F 96% 30.18 in 10.0 mi Calm Calm - N/A   Clear
6:53 AM 32.0 °F 30.9 °F 96% 30.20 in 10.0 mi Calm Calm - N/A   Clear
7:53 AM 32.0 °F 30.9 °F 96% 30.22 in 9.0 mi Calm Calm - N/A   Clear
8:53 AM 37.9 °F 36.0 °F 93% 30.25 in 10.0 mi Calm Calm - N/A   Clear
9:53 AM 48.9 °F 39.0 °F 69% 30.25 in 10.0 mi Calm Calm - N/A   Clear
10:53 AM 57.0 °F 37.9 °F 49% 30.24 in 10.0 mi SSE 3.5 mph - N/A   Clear
11:53 AM 63.0 °F 37.0 °F 38% 30.22 in 10.0 mi Calm Calm - N/A   Clear
12:53 PM 68.0 °F 35.1 °F 30% 30.19 in 10.0 mi Variable 4.6 mph - N/A   Clear
1:53 PM 70.0 °F 33.1 °F 26% 30.16 in 10.0 mi Variable 3.5 mph - N/A   Clear
2:53 PM 72.0 °F 36.0 °F 27% 30.13 in 10.0 mi Calm Calm - N/A   Partly Cloudy
3:53 PM 72.0 °F 39.0 °F 30% 30.12 in 10.0 mi ESE 4.6 mph - N/A   Clear
4:53 PM 71.1 °F 39.0 °F 31% 30.12 in 10.0 mi SE 3.5 mph - N/A   Clear
5:53 PM 66.0 °F 43.0 °F 43% 30.13 in 10.0 mi Calm Calm - N/A   Clear
6:53 PM 59.0 °F 45.0 °F 60% 30.14 in 10.0 mi Calm Calm - N/A   Clear
7:53 PM 57.0 °F 43.0 °F 59% 30.14 in 10.0 mi Calm Calm - N/A   Clear
9:53 PM 48.0 °F 45.0 °F 89% 30.14 in 10.0 mi Calm Calm - N/A   Clear
10:53 PM 46.0 °F 44.1 °F 93% 30.14 in 10.0 mi Calm Calm - N/A   Clear
11:53 PM 45.0 °F 43.0 °F 93% 30.13 in 10.0 mi Calm Calm - N/A   Clear